Theta_e
313 313 314 314 314 313 313 312 312 311 310 309 307 311 311 308 305 315 319 316 312 307 301 304 301 298 300 303 301 302 300 299 300 299 300 298 300 298 297 296 295 296 294 295 294 295 292 293 291 294 294 295 297 298 299 299 298 298 295 298 297 304 293 289 290 293 296 298 300 301 300 299 297 299 299 298 296 298 296 296 297 293 295 292 294 293 295
313 313 314 314 313 312 313 312 312 312 311 309 310 309 309 308 310 311 313 317 315 304 294 295 297 298 301 300 298 301 300 298 297 297 298 297 297 295 296 297 298 295 297 295 292 295 290 294 293 292 295 293 300 299 299 299 296 297 294 292 296 289 293 289 285 285 287 290 294 295 299 299 296 296 299 299 300 302 301 300 301 296 295 295 294 289 294
313 314 314 313 313 313 312 312 312 312 312 311 310 306 308 308 313 313 310 316 310 301 300 298 297 296 297 298 296 298 297 299 298 298 297 299 298 297 295 297 298 296 297 296 296 296 293 291 295 295 295 294 300 300 299 300 297 300 302 304 299 294 291 288 282 281 279 280 281 285 288 292 295 297 297 298 298 297 297 294 294 287 295 294 293 294 300
314 314 314 313 313 313 313 312 312 312 312 311 311 309 308 307 300 304 308 310 307 304 307 302 299 298 298 296 296 298 295 298 299 299 298 299 298 298 297 298 299 295 295 294 293 293 296 293 292 293 293 295 297 299 300 299 298 304 307 305 299 295 293 291 289 285 284 287 289 295 296 293 290 293 294 294 296 298 298 296 294 290 294 292 295 299 298
313 314 314 313 313 313 313 312 312 313 311 311 309 311 309 310 300 301 298 305 303 301 302 301 300 296 299 295 297 294 296 297 298 300 295 299 297 298 297 296 294 294 294 293 292 294 293 296 294 294 293 295 297 300 300 299 301 305 302 303 297 293 288 290 291 290 290 291 291 293 294 290 291 291 291 294 295 296 296 293 291 297 293 287 299 299 297
313 314 314 314 313 313 313 312 312 312 311 311 314 310 312 299 303 305 305 297 293 297 296 301 299 300 299 297 300 294 295 294 292 298 299 299 299 295 298 298 297 296 294 294 291 293 292 295 293 295 296 295 297 295 299 297 301 301 298 301 296 291 286 290 290 289 291 292 292 293 292 292 292 292 292 292 293 293 292 293 296 297 293 290 297 299 298
313 314 314 314 313 313 313 313 313 312 311 311 316 305 308 307 307 305 308 301 300 300 300 302 299 298 299 297 297 295 295 294 296 295 295 297 297 298 293 294 296 297 297 299 294 296 289 290 295 296 295 294 294 292 296 298 299 298 296 297 299 293 288 291 291 289 290 291 291 292 291 291 292 292 293 293 293 293 294 294 295 295 294 296 297 298 299
313 314 314 314 314 314 314 313 313 313 311 315 315 308 303 302 302 301 307 305 302 302 301 301 299 296 300 296 295 296 295 294 296 298 295 293 296 299 295 294 296 296 297 297 293 294 295 295 291 297 296 293 295 293 295 292 297 297 294 295 298 292 288 294 292 288 288 291 293 292 292 291 290 291 292 292 292 293 294 294 295 298 296 297 298 298 299
313 313 314 315 314 314 314 314 313 312 312 313 310 308 309 308 311 311 303 299 301 303 301 299 299 295 297 295 296 297 296 295 296 297 300 296 295 297 294 297 296 297 297 297 297 299 298 298 297 297 296 290 296 292 295 297 294 297 296 298 297 295 289 293 290 286 286 290 291 291 292 291 290 289 291 291 291 290 292 292 295 295 294 296 296 295 297
313 314 314 315 315 314 314 313 314 312 313 314 311 305 312 312 313 313 308 300 305 302 301 300 299 292 295 297 297 296 297 298 298 294 301 299 300 300 297 296 296 296 296 296 297 300 299 298 298 298 298 298 297 297 297 296 293 295 293 297 292 293 291 288 287 284 285 290 291 290 290 289 286 287 290 292 292 293 294 295 297 297 297 293 291 294 302
313 314 314 315 315 315 315 315 315 313 313 311 310 307 309 307 307 308 309 301 300 300 299 297 297 298 300 299 297 300 298 299 301 294 295 298 300 301 300 299 296 293 295 298 302 302 302 301 301 300 299 298 297 297 298 298 298 298 295 294 294 294 292 288 291 282 284 289 289 290 286 279 281 293 295 295 292 293 292 292 294 297 298 296 298 299 302
313 314 314 315 315 315 315 315 315 312 311 313 314 311 311 314 311 310 304 298 297 302 297 295 298 301 298 299 300 298 298 298 298 302 297 297 298 300 299 299 298 293 300 303 303 302 303 303 302 301 300 299 299 300 300 297 298 300 298 294 292 292 293 289 293 285 283 287 288 284 278 280 292 296 296 297 296 296 301 299 299 302 302 299 299 300 307
313 313 314 315 315 315 315 315 315 313 311 312 315 311 314 316 312 308 306 301 297 298 297 297 302 300 300 300 299 300 301 301 301 302 300 299 298 298 300 301 299 300 303 301 302 300 296 295 295 297 297 299 299 301 299 298 297 299 298 298 294 290 289 289 288 288 287 285 283 276 279 290 294 295 296 298 297 302 301 298 301 306 307 308 307 309 312
313 313 314 315 315 315 315 315 315 315 312 310 312 315 317 315 309 307 305 301 299 302 301 300 300 299 300 300 300 299 301 301 301 302 299 302 299 299 301 302 302 303 304 303 301 300 294 295 290 291 291 294 295 293 296 296 297 297 297 298 298 295 293 291 286 289 281 283 282 283 290 289 291 291 293 295 297 301 299 294 299 306 306 306 306 308 310
313 313 314 314 315 315 315 315 315 315 314 309 312 316 317 316 315 310 310 307 299 301 301 295 297 299 300 300 301 299 299 300 299 299 302 303 301 303 302 304 306 305 304 300 298 299 294 293 287 286 287 286 279 283 293 291 296 297 297 297 297 297 291 293 287 285 288 282 280 281 280 278 284 293 297 307 307 309 308 301 297 305 305 306 306 306 308
312 313 314 314 315 314 314 315 315 315 314 309 314 319 318 318 319 317 311 307 302 294 299 302 303 301 300 300 302 299 297 297 298 299 299 303 301 303 306 308 307 306 304 301 301 296 294 289 283 282 281 283 288 284 282 290 289 295 296 297 297 297 299 295 289 286 287 284 279 278 275 281 290 295 303 305 306 307 308 299 291 303 304 305 306 306 307
312 313 314 314 314 314 314 315 315 315 315 310 311 316 318 321 318 313 310 309 306 298 304 305 304 304 302 300 301 301 301 297 299 295 294 297 302 302 305 307 308 306 302 300 298 295 291 289 286 283 285 288 282 282 285 284 282 286 294 296 294 292 291 290 286 285 286 285 281 279 284 281 294 300 302 304 305 305 300 287 287 300 305 305 305 304 305
312 313 314 314 314 314 314 314 315 315 314 312 311 312 315 324 321 318 313 309 303 303 308 307 304 301 300 302 300 304 305 305 303 304 299 300 303 302 303 304 301 304 305 297 296 292 290 286 283 283 283 292 290 285 280 282 280 284 285 287 286 287 288 289 284 286 287 286 284 285 286 294 298 299 302 303 306 302 286 282 294 302 304 305 305 305 305
312 313 313 314 314 314 314 314 315 315 315 310 312 316 318 321 321 320 313 309 307 300 308 310 310 306 307 308 306 306 304 305 304 299 297 297 300 304 304 303 303 298 305 296 296 292 287 288 293 287 284 285 288 282 285 282 282 290 290 286 285 288 287 288 289 285 284 285 283 284 287 297 300 302 303 306 299 286 284 297 301 302 304 305 306 305 306
312 312 313 313 313 314 314 314 314 315 315 312 311 313 317 323 322 320 312 306 307 303 307 308 308 306 310 305 303 303 304 304 305 301 299 294 307 304 300 298 305 304 299 299 292 294 289 286 288 288 285 285 287 291 285 285 292 286 287 291 286 287 284 284 284 288 287 285 283 282 278 293 300 300 301 304 293 292 298 300 304 307 305 305 305 305 306
312 312 312 313 313 313 314 314 314 314 315 314 309 313 315 322 322 323 321 314 306 301 305 312 313 309 310 308 308 306 305 301 303 300 303 302 307 302 289 292 298 299 295 297 289 291 293 287 290 287 291 286 290 288 283 283 285 296 292 290 289 293 285 285 287 291 283 283 281 282 291 295 301 298 292 298 302 303 304 304 302 305 306 305 304 305 306
312 312 312 312 313 313 314 314 314 314 314 314 310 312 312 321 323 322 320 317 308 304 306 311 313 311 313 313 312 312 309 308 309 310 306 301 307 303 303 304 302 300 302 302 296 296 296 295 296 288 286 287 295 286 289 284 283 288 296 293 283 293 288 290 284 292 288 285 289 291 295 300 301 300 300 302 304 307 306 305 304 303 304 306 305 305 306
312 312 312 312 312 313 313 314 314 314 313 314 312 312 313 318 321 321 320 311 312 311 313 311 314 315 317 316 318 316 315 316 316 315 313 304 301 305 302 302 302 307 307 305 298 297 297 296 290 295 290 291 286 285 289 289 285 287 283 294 290 296 296 296 293 290 296 297 297 299 300 300 300 303 304 304 305 306 307 306 303 304 305 306 304 306 306
312 312 312 312 312 313 313 314 314 314 314 313 311 311 314 316 317 318 316 312 308 304 309 313 309 308 309 310 315 317 315 313 313 318 320 316 302 302 306 309 310 307 306 308 307 300 299 299 297 296 287 293 294 287 284 284 284 290 288 287 292 296 296 294 290 293 289 285 300 296 297 297 298 301 305 305 305 305 305 305 306 305 306 306 307 306 306
311 312 312 312 312 313 313 313 313 314 314 313 313 314 315 314 318 318 312 304 306 304 298 303 306 312 314 315 314 313 313 315 316 315 314 313 310 303 304 308 312 306 304 307 308 305 302 296 297 296 287 296 294 286 294 286 286 294 285 287 289 289 298 292 292 291 288 288 293 295 296 297 298 302 299 300 301 303 304 304 305 305 306 307 307 308 307
311 311 312 312 312 312 313 313 313 313 313 313 312 311 313 315 322 324 319 314 312 308 301 301 306 316 316 313 311 313 316 314 313 314 314 313 312 310 309 315 314 314 312 310 307 302 300 299 298 297 292 292 299 290 287 294 293 297 291 289 294 294 297 286 291 288 291 294 296 295 295 296 299 298 299 300 301 301 302 303 303 304 304 306 307 308 308
311 311 312 312 312 312 312 312 313 313 313 312 311 311 312 315 320 318 314 312 306 303 305 302 307 311 313 310 314 316 317 314 312 312 313 313 312 312 311 313 310 310 308 309 309 306 304 300 297 294 297 296 298 295 297 295 294 292 291 295 298 294 290 293 291 287 286 287 290 294 287 288 292 295 297 299 301 302 302 302 302 303 303 305 305 306 308
311 311 311 312 312 312 312 313 313 313 313 312 311 311 313 314 317 319 320 318 309 301 302 302 302 307 313 310 316 317 316 315 312 312 312 312 312 311 310 308 308 306 309 305 301 300 299 296 296 301 300 301 296 295 299 299 296 293 292 294 297 292 293 292 286 286 285 292 295 297 295 294 294 296 298 299 301 301 301 301 302 303 304 305 305 304 305
311 311 311 311 312 312 312 312 312 313 313 311 311 311 312 315 317 318 320 322 319 310 307 306 309 307 302 307 314 312 314 314 312 311 310 310 311 311 309 309 308 308 308 306 303 303 300 299 303 298 297 302 298 294 294 289 289 288 291 296 296 297 299 296 295 295 296 298 297 298 296 293 295 297 298 300 301 301 300 302 303 303 303 304 304 305 304
311 311 311 311 311 312 312 312 312 312 313 312 310 310 309 313 318 318 319 321 319 314 305 302 298 303 312 312 310 313 313 313 312 311 310 309 309 309 308 308 308 310 308 306 305 298 302 301 301 302 304 306 298 297 292 292 289 293 298 298 299 299 300 300 301 296 294 299 299 300 299 299 301 301 300 300 302 303 302 301 302 302 304 305 304 305 306
311 311 311 311 311 312 312 312 312 312 311 309 310 307 307 304 313 321 318 321 321 314 308 306 301 307 306 312 312 310 312 312 311 309 310 309 309 309 309 310 312 313 306 304 303 303 303 298 300 303 305 306 301 296 294 292 290 292 296 298 299 299 299 299 301 301 301 300 301 301 301 301 302 301 299 301 302 302 301 302 303 306 305 305 305 305 305
311 311 311 312 311 312 312 312 312 312 310 308 308 310 311 312 316 319 319 320 320 311 305 300 301 301 301 306 312 318 312 312 311 311 310 312 310 313 311 313 309 312 308 304 306 303 299 302 300 301 301 305 303 297 295 292 290 293 298 298 299 300 300 299 300 301 302 303 301 298 297 297 300 297 297 301 301 301 301 301 303 303 305 305 305 306 306
311 311 311 311 311 311 312 312 312 311 309 311 311 311 312 311 311 313 318 321 316 310 311 304 299 302 299 304 313 311 312 313 312 311 309 315 310 309 307 312 310 307 311 305 299 296 303 302 303 300 303 305 298 297 293 291 294 298 298 300 300 301 301 302 301 302 302 303 302 294 293 295 297 300 302 302 301 300 301 301 302 303 303 303 304 305 306
311 311 311 310 311 311 311 311 312 311 311 308 306 309 315 314 313 311 319 321 314 314 313 304 299 298 299 310 302 310 313 310 308 308 305 315 315 308 307 307 310 304 306 301 303 302 304 304 299 300 305 300 301 296 290 294 298 300 300 300 301 302 302 301 301 300 300 301 303 302 301 302 302 303 302 301 300 301 302 303 303 302 302 302 303 305 307
311 310 310 311 311 311 311 311 310 308 306 309 309 318 317 315 314 315 316 316 306 305 305 305 304 298 297 300 299 307 316 307 304 308 304 309 314 307 308 304 305 299 302 308 303 301 300 301 304 297 294 299 296 287 291 296 298 299 300 300 301 301 301 299 299 300 301 303 302 301 302 301 299 297 298 300 299 300 301 302 302 301 300 301 302 304 305
311 311 311 311 311 311 311 310 309 308 308 309 314 319 318 318 317 319 318 320 314 305 303 303 303 299 299 294 295 306 311 307 309 307 309 310 307 311 308 305 297 301 309 302 298 301 299 305 300 292 301 291 289 292 296 300 299 300 301 300 301 301 301 299 299 300 302 302 302 302 301 300 298 297 298 299 299 299 300 300 301 301 300 301 302 303 305
310 311 312 311 311 310 308 309 312 311 314 318 318 319 319 320 321 320 317 314 317 317 305 302 299 299 301 300 304 312 306 300 309 305 306 304 302 306 305 301 297 303 300 300 299 297 302 308 300 294 295 289 293 302 303 303 302 301 301 302 303 304 304 303 304 302 300 301 301 300 300 299 298 298 297 298 298 299 298 298 299 299 299 300 302 303 305
311 311 312 311 311 311 313 314 316 319 318 316 317 314 312 314 309 310 309 306 310 311 306 305 299 302 307 302 298 311 305 304 308 300 304 307 302 300 306 300 301 301 293 297 299 307 302 300 296 292 294 301 302 304 304 304 304 305 304 304 304 304 304 304 304 301 298 296 296 298 299 299 298 297 296 297 298 297 298 300 301 301 302 302 302 304 305
310 312 311 313 313 312 313 318 317 315 317 316 318 312 309 311 308 304 305 306 308 302 306 303 300 305 303 303 304 312 306 303 302 303 297 305 299 295 303 294 302 301 292 295 298 306 292 291 296 295 293 297 300 301 305 304 305 305 306 305 305 305 306 304 303 301 299 297 298 299 299 297 296 297 298 298 298 300 299 300 300 301 301 302 303 305 304
312 311 314 316 314 317 320 318 316 316 316 312 315 310 304 311 303 297 311 300 299 306 306 300 306 306 308 305 304 303 313 307 299 299 301 300 306 296 301 300 302 297 289 290 296 303 294 287 294 291 289 297 298 303 304 304 303 304 305 305 304 305 305 303 304 304 302 302 303 302 302 302 302 301 300 298 298 298 298 300 301 301 302 302 304 304 304
313 315 318 315 316 321 320 320 318 317 313 309 309 309 306 298 307 309 307 301 300 302 310 307 309 308 308 309 306 302 313 313 311 313 306 298 308 306 298 294 304 293 291 288 300 300 297 292 290 288 291 298 299 302 304 304 303 303 305 305 305 304 305 305 304 304 304 303 302 302 302 302 302 302 302 301 300 299 299 300 300 301 302 302 302 303 305
316 315 316 316 317 319 321 319 317 313 312 313 303 294 299 304 310 309 307 296 298 304 309 308 303 303 303 309 307 310 309 318 313 308 302 297 305 299 297 299 299 289 285 298 303 299 294 286 285 289 298 300 303 304 304 302 303 303 304 305 305 305 304 304 304 305 305 304 303 303 303 302 302 302 302 302 301 301 300 300 301 301 301 302 304 303 305
311 312 312 315 317 316 318 305 314 311 296 294 295 291 299 293 300 299 302 308 312 306 309 313 311 312 312 314 310 313 310 315 307 305 301 297 306 304 297 294 294 286 293 302 297 291 286 284 284 293 300 301 302 303 303 303 303 305 304 306 306 306 305 304 304 304 305 304 303 303 303 303 302 302 304 303 303 302 302 302 303 302 302 302 302 303 304
318 318 315 316 312 316 314 295 313 306 296 296 292 288 295 295 298 303 300 302 304 303 310 304 307 305 300 312 306 309 309 309 311 307 302 306 301 296 296 289 291 300 304 296 293 287 287 292 296 298 300 302 303 304 302 303 303 304 303 307 307 307 304 304 304 304 303 305 304 304 305 303 303 303 303 304 303 301 301 301 303 304 303 302 302 302 303
313 313 309 307 300 306 299 290 310 299 291 296 299 299 299 296 299 301 300 310 307 306 309 310 308 307 303 311 312 309 307 301 308 300 296 302 296 297 292 291 299 299 293 288 292 292 292 292 299 300 301 300 303 303 303 303 304 303 303 305 304 304 304 302 303 303 302 303 303 304 303 303 302 302 302 302 303 303 302 301 302 302 302 301 301 301 302
312 303 301 297 292 294 296 292 293 290 302 305 303 304 303 304 305 303 308 310 307 309 308 309 308 307 304 310 303 301 305 304 299 300 301 301 293 290 299 302 301 293 291 291 285 285 289 294 298 299 302 303 302 303 304 304 305 305 305 302 303 303 304 303 303 303 303 303 304 303 303 303 302 302 301 302 302 302 302 303 303 302 302 301 301 301 302
309 314 305 300 296 298 308 294 297 301 305 307 309 308 307 308 309 311 312 313 309 310 311 315 310 307 303 304 305 307 304 304 297 303 301 294 293 298 304 295 288 290 286 283 285 289 292 297 299 302 304 304 303 304 304 304 303 304 305 303 303 304 303 303 303 303 303 304 304 303 302 302 302 302 302 301 302 302 302 303 303 303 303 301 302 302 302
299 310 309 295 292 297 295 303 311 309 314 310 310 310 310 312 309 308 311 312 312 310 309 310 306 308 304 312 307 299 301 302 298 299 301 297 300 294 288 289 290 292 293 289 289 295 297 300 302 303 304 305 304 303 303 304 303 304 304 303 303 304 303 302 302 302 303 303 303 302 302 302 302 302 302 301 302 302 302 302 302 303 303 302 302 302 302
315 303 299 297 304 305 304 309 307 305 307 310 311 310 309 307 306 308 311 313 311 310 314 309 307 306 300 305 300 299 296 303 292 291 299 297 290 285 286 283 284 284 292 293 293 296 300 303 305 305 306 304 304 304 304 303 304 303 302 302 302 304 303 302 302 303 303 303 303 303 303 303 303 303 302 303 302 301 302 302 302 302 302 302 302 302 302
304 302 309 301 304 306 309 309 305 303 307 308 311 309 309 309 308 309 313 312 313 311 310 309 313 302 302 301 292 297 293 302 298 293 294 290 290 292 290 285 287 287 290 295 296 298 301 304 305 303 304 304 304 303 302 303 304 306 304 301 303 305 302 302 303 303 303 303 303 303 303 303 302 302 302 302 302 303 302 302 301 301 301 302 302 301 302
316 305 305 313 307 305 307 303 302 301 303 304 306 311 307 307 308 308 313 312 312 313 307 302 302 299 292 293 291 288 291 302 297 293 292 289 294 292 289 286 290 294 296 300 299 300 301 302 303 304 304 302 304 305 305 304 305 307 305 301 305 303 304 301 302 302 303 304 304 304 303 303 303 303 304 304 303 302 301 302 302 302 301 302 302 301 301
301 298 303 308 314 313 314 310 312 308 308 308 308 311 311 308 310 312 316 313 311 304 300 306 303 295 291 290 295 299 303 297 292 294 290 293 296 291 291 293 294 297 298 297 300 302 303 301 303 303 303 304 305 306 307 306 305 307 307 302 301 303 302 302 302 302 303 303 304 304 304 305 304 304 305 303 302 301 299 300 302 302 302 301 302 302 302
Wind_Speed
20 22 21 21 21 21 22 23 23 22 23 12 10 8 4 3 5 1 2 3 4 4 4 5 2 3 4 6 8 7 8 9 10 11 13 6 7 5 5 12 10 12 10 11 7 9 3 7 7 7 8 10 12 10 13 10 11 6 7 9 9 11 1 6 9 10 10 13 14 14 9 10 8 7 5 4 6 12 7 3 3 1 5 2 2 4 5
20 20 20 20 20 21 22 23 21 19 17 9 9 5 4 5 5 4 5 4 3 3 6 6 5 3 6 8 10 9 8 9 9 9 11 9 8 10 9 9 9 8 10 5 9 10 2 9 12 6 9 3 11 21 17 16 7 8 3 4 9 4 3 5 6 6 8 10 8 8 8 10 9 8 9 15 13 13 16 7 3 1 4 9 3 5 4
19 18 19 19 20 21 23 23 22 19 15 10 5 5 6 6 4 5 3 2 3 3 4 7 4 7 8 7 8 8 6 8 10 9 10 10 8 8 9 9 4 7 7 9 5 8 9 3 8 12 8 8 9 19 17 14 10 10 9 9 5 1 4 5 3 3 4 4 2 5 9 12 11 8 16 14 16 18 15 9 6 2 3 7 1 5 9
17 19 19 19 20 22 23 23 23 21 16 13 4 3 3 2 3 5 2 5 3 4 3 7 7 6 8 7 7 9 7 7 10 8 9 9 9 6 6 11 9 11 9 6 10 12 9 7 5 7 7 7 6 13 13 12 8 12 16 10 4 1 2 2 2 4 7 8 8 7 10 10 10 18 17 15 15 14 8 5 3 5 6 4 3 1 14
18 19 19 18 19 22 23 23 24 24 20 12 3 3 3 4 2 5 5 5 9 7 7 6 6 7 7 1 5 8 5 8 7 7 5 6 7 6 9 6 8 5 7 10 8 8 8 9 7 6 9 9 9 11 9 9 9 11 7 7 4 2 3 6 6 10 11 12 14 15 13 13 13 15 19 16 13 8 7 3 4 3 8 8 2 10 14
18 19 20 19 19 21 23 24 25 26 25 18 2 4 2 1 5 3 3 2 4 5 6 6 6 10 10 2 1 4 6 8 6 4 7 9 9 6 3 10 12 12 10 7 5 7 7 3 2 6 5 7 7 9 10 9 9 6 3 6 4 3 5 7 9 12 12 13 14 14 13 11 11 14 15 16 13 12 10 7 8 6 3 8 7 10 14
17 18 19 20 19 20 22 24 25 27 29 20 2 4 4 3 4 6 10 2 4 5 6 9 12 10 9 3 11 7 6 8 9 5 6 4 3 7 2 8 10 8 5 1 1 1 3 4 5 2 2 4 5 4 3 1 7 7 4 4 0 3 4 8 9 13 13 13 13 13 14 12 14 14 13 14 14 12 10 10 10 11 10 12 10 12 15
16 17 18 19 18 19 21 23 25 27 30 18 3 7 5 5 5 4 10 5 5 7 5 7 7 6 8 4 7 8 11 12 11 9 9 6 9 7 4 10 7 6 8 6 3 7 5 3 4 4 3 5 3 3 2 2 1 2 4 4 1 2 3 11 11 9 10 11 12 11 11 11 14 15 14 15 15 13 12 11 10 10 10 13 7 9 11
16 15 17 18 17 17 19 20 22 26 24 5 7 6 7 2 2 2 3 4 3 5 5 4 5 5 6 4 6 5 9 8 6 5 6 7 3 2 7 2 6 1 2 3 3 3 4 5 6 6 7 5 3 3 1 1 2 2 2 0 3 2 4 6 6 8 9 9 11 12 11 12 14 15 14 12 12 13 8 7 5 5 7 11 11 9 7
14 15 16 18 16 16 17 18 20 22 21 6 5 7 7 6 5 5 2 2 1 1 7 3 3 6 4 4 6 5 5 6 8 5 1 3 4 4 7 11 9 2 4 3 4 6 6 7 8 5 6 5 6 5 6 6 4 2 3 2 4 2 2 2 3 6 8 11 13 14 14 12 11 10 9 9 11 12 13 12 12 11 10 12 9 9 3
14 14 15 17 16 16 17 16 17 18 11 7 7 6 6 7 7 6 2 2 3 3 3 6 4 3 3 5 3 4 6 5 2 2 1 5 5 5 7 3 4 1 4 5 4 5 9 7 7 6 7 8 8 6 5 10 6 4 3 3 2 3 3 4 2 4 8 11 14 13 9 9 7 4 7 6 8 7 11 10 9 9 9 7 9 11 9
13 13 14 16 14 14 15 15 15 15 11 5 4 3 5 4 5 3 3 2 2 0 6 4 3 2 7 6 6 4 4 3 4 3 5 6 7 5 4 5 6 3 5 0 4 3 6 7 9 7 9 7 8 6 6 8 7 5 4 6 4 4 2 3 0 3 7 7 9 9 10 9 7 11 11 12 12 13 10 11 11 11 10 11 14 12 8
12 12 13 14 14 13 13 14 14 14 13 7 6 4 5 6 4 3 3 3 2 4 4 4 2 8 7 7 4 4 4 4 4 3 5 5 6 7 5 2 2 3 6 5 4 5 6 5 7 7 7 4 5 2 4 5 4 5 4 4 4 4 5 3 3 3 4 5 4 5 9 6 9 11 13 15 16 6 9 11 7 8 9 11 10 8 7
11 11 12 13 13 13 14 13 14 13 13 9 5 5 4 5 5 5 4 4 4 6 4 2 10 8 5 4 5 6 5 4 5 2 4 6 8 7 7 7 7 4 6 8 5 3 3 1 4 3 3 3 2 2 3 6 5 5 5 5 5 7 4 4 6 4 7 5 4 8 8 13 12 9 8 4 2 4 3 3 4 10 10 13 10 11 11
10 10 11 12 12 12 12 12 13 13 12 12 4 5 3 4 4 4 4 3 4 3 7 3 3 5 4 5 4 5 3 5 6 5 7 7 7 9 7 8 8 9 7 4 0 2 2 2 2 3 3 2 2 2 4 3 6 7 6 6 5 3 7 1 5 4 6 6 4 3 3 6 8 7 7 4 3 0 0 1 3 8 11 11 11 11 11
9 9 10 11 11 11 12 12 12 12 12 13 5 4 4 4 4 4 3 3 3 1 4 5 1 2 3 4 5 5 5 4 4 5 4 2 5 9 10 13 8 6 8 6 2 1 1 2 2 1 2 1 1 1 1 5 4 4 6 7 5 5 4 5 3 5 3 5 6 4 4 9 7 4 2 5 4 4 3 2 7 3 8 9 10 11 11
8 8 9 10 10 10 11 12 11 11 10 10 5 6 2 3 3 4 5 2 2 2 3 5 6 4 3 3 4 3 3 3 3 3 3 3 3 2 3 5 8 7 7 2 2 2 2 1 1 2 1 2 1 1 3 0 5 6 4 3 5 5 3 2 0 6 6 7 5 8 5 4 5 8 10 11 9 7 4 7 3 4 6 8 9 11 12
8 7 8 9 9 10 10 10 11 11 11 11 5 4 4 2 3 3 3 3 4 4 2 7 5 4 3 1 2 1 2 1 2 1 3 4 2 2 3 3 3 1 5 2 1 1 1 0 1 1 1 1 2 2 1 1 1 4 5 7 3 3 2 2 5 5 6 9 8 6 7 2 2 6 11 10 10 3 1 7 2 4 6 4 4 6 9
8 7 7 8 8 9 9 10 10 10 9 9 7 4 2 2 3 3 3 3 3 4 9 12 7 3 7 6 2 2 3 2 1 2 2 3 2 4 7 2 2 1 2 1 1 1 0 1 2 1 1 1 1 1 0 1 1 2 3 3 4 2 2 2 1 4 6 7 9 9 4 1 5 8 7 4 3 5 5 1 3 5 6 4 3 3 4
7 7 7 7 8 8 9 9 10 9 9 9 5 3 4 2 2 2 3 4 3 6 9 10 6 10 10 7 3 2 2 3 1 2 1 3 1 5 4 1 3 0 2 2 1 1 1 1 1 0 2 1 0 2 1 4 2 0 0 1 2 0 1 2 2 3 2 3 8 5 8 1 11 13 4 5 1 2 2 6 5 5 4 5 4 4 2
8 6 6 7 7 8 8 9 9 8 8 7 6 4 2 1 1 1 0 1 4 6 6 3 9 13 9 10 9 6 1 4 3 3 1 2 2 1 1 1 1 1 0 1 1 1 1 1 1 1 1 2 2 1 2 0 2 2 4 1 0 2 3 2 1 1 4 3 5 3 2 6 8 8 3 2 3 6 7 6 7 4 5 5 3 3 3
8 7 6 6 6 7 9 8 9 8 7 5 5 3 4 1 0 2 2 1 2 5 5 11 11 11 12 11 12 8 7 8 6 3 1 2 1 2 1 2 2 2 2 0 1 1 1 0 1 1 1 2 1 3 2 2 2 3 4 3 3 3 2 3 3 1 2 3 4 6 7 6 7 9 10 6 7 5 7 8 7 7 5 4 5 4 3
8 8 6 6 6 7 8 9 9 7 7 6 4 3 4 3 1 1 2 3 4 6 8 10 9 10 10 12 12 10 6 2 1 1 2 3 3 2 3 2 1 1 0 1 1 1 1 1 2 1 2 2 1 2 2 4 2 2 0 2 2 2 3 2 4 4 4 11 14 8 3 5 9 9 6 7 7 5 6 7 8 8 6 5 6 7 6
9 7 6 6 6 7 8 8 9 9 7 5 4 4 4 5 6 4 2 4 3 6 6 6 5 4 7 9 10 12 9 5 4 3 1 1 2 2 2 1 1 2 1 1 1 0 0 0 0 1 1 1 2 2 2 3 2 1 1 2 2 1 3 1 3 4 4 3 2 5 8 8 11 9 3 4 3 4 4 7 7 9 9 7 6 7 8
9 8 7 6 6 7 8 9 8 8 6 6 7 6 6 5 4 2 3 5 2 3 4 6 7 10 6 9 0 5 7 5 4 7 5 3 3 4 1 3 2 0 1 3 2 2 2 2 1 1 2 0 3 3 2 1 2 2 1 2 2 1 2 3 3 6 5 6 8 6 10 12 10 1 8 8 9 10 9 8 9 10 11 9 8 8 9
9 9 7 6 6 7 8 9 9 7 4 5 5 4 4 5 3 0 1 3 3 3 4 4 5 8 9 9 9 8 7 4 7 11 9 7 7 6 5 1 0 2 0 4 5 3 2 2 0 1 0 2 2 2 3 3 0 3 4 4 3 1 3 2 2 4 7 11 4 10 14 10 2 7 10 9 9 10 11 11 11 12 12 10 10 10 10
9 8 8 6 6 7 8 8 8 8 8 5 5 5 6 6 5 4 3 3 4 3 6 6 4 8 9 14 13 12 13 9 6 6 9 8 6 5 4 1 1 2 3 2 2 1 1 1 2 4 4 3 4 3 2 2 2 2 2 2 4 1 5 0 2 5 6 1 4 8 8 9 10 10 11 13 13 13 13 12 11 11 11 9 10 10 10
9 8 7 6 6 7 8 7 8 8 5 4 7 7 7 7 6 5 4 3 3 3 4 6 8 9 11 15 12 11 12 11 8 9 10 9 9 6 4 5 5 4 2 3 1 3 3 4 4 1 2 2 3 3 1 2 1 2 5 4 3 3 2 2 2 2 5 2 4 2 6 10 10 13 14 13 13 13 13 12 12 11 11 11 11 11 11
9 8 7 6 6 7 8 8 8 8 6 4 6 7 8 9 8 7 6 3 2 3 5 8 9 8 5 5 7 7 7 10 9 7 5 8 8 8 6 5 5 4 3 3 3 2 1 3 2 4 3 3 1 1 2 3 2 4 2 4 4 3 5 7 6 5 8 6 3 4 6 8 11 12 12 12 11 11 11 10 10 11 12 12 12 12 12
9 8 7 6 6 7 7 7 7 7 6 5 5 5 5 3 6 7 6 4 3 2 4 5 6 4 6 7 8 10 9 6 7 8 9 8 8 7 7 5 4 4 3 2 2 3 2 2 3 4 3 7 3 2 3 1 4 0 3 3 2 4 5 4 4 6 6 3 4 6 7 9 9 9 10 11 12 10 9 10 10 11 11 11 12 12 12
9 8 7 6 6 7 7 7 7 6 3 5 4 4 4 2 2 5 6 5 5 2 4 4 8 7 8 8 9 10 10 7 7 6 7 6 6 7 5 4 1 1 3 2 2 3 1 2 1 2 2 2 2 2 2 4 3 3 3 6 6 6 5 6 7 8 7 6 6 6 7 6 6 10 10 9 11 12 13 11 11 13 13 13 12 11 12
8 7 6 5 5 7 7 7 7 7 5 6 7 2 2 2 1 4 2 6 4 1 3 5 6 4 3 5 1 1 4 6 1 4 2 4 4 6 5 3 3 1 1 2 1 2 3 4 5 5 3 2 3 1 4 5 6 1 4 6 5 3 4 4 5 6 6 5 6 6 4 6 6 9 9 12 12 12 12 13 13 11 13 12 11 11 12
8 7 5 5 7 7 7 7 7 7 6 7 17 22 19 19 19 14 5 2 1 3 1 3 6 4 4 3 1 5 4 3 4 3 3 1 3 2 2 3 3 2 2 3 3 4 2 4 3 3 1 6 1 3 3 5 1 2 4 2 2 2 4 6 8 5 6 5 3 2 5 6 9 10 8 9 10 11 12 13 12 11 11 11 13 13 13
8 7 6 7 7 7 6 7 4 5 6 6 7 8 10 15 14 15 7 2 2 2 2 4 4 5 7 4 8 1 2 1 1 2 3 0 2 3 2 0 2 1 4 5 2 2 2 3 1 1 2 2 4 3 4 2 4 2 3 3 1 1 1 3 1 5 7 5 5 3 4 2 6 6 8 8 9 11 12 11 12 11 10 10 11 10 11
5 5 7 5 4 4 4 4 4 4 4 5 7 4 3 5 16 13 9 4 3 3 4 4 2 4 5 4 6 1 0 3 2 2 2 1 2 2 2 3 3 3 3 3 3 5 5 3 4 3 5 4 4 2 4 2 2 4 2 1 1 2 2 2 2 1 6 4 5 6 2 1 4 7 9 9 9 12 12 12 11 11 10 9 9 10 11
6 4 4 3 4 5 3 3 3 4 4 5 2 3 7 9 8 7 7 3 2 4 4 4 2 7 5 7 6 1 1 0 2 1 1 0 2 1 2 2 5 5 1 4 3 5 5 4 4 3 2 3 4 4 3 2 3 2 2 2 2 2 1 1 2 3 3 7 4 2 2 1 3 5 7 6 8 11 12 11 11 10 10 10 10 11 11
2 5 6 6 5 2 3 4 4 6 3 3 6 5 4 3 4 2 2 1 1 1 4 3 6 9 6 6 3 1 0 4 2 1 1 1 2 1 2 2 5 1 2 3 4 4 1 2 2 2 2 4 1 2 2 3 2 2 3 3 2 0 1 0 1 2 2 1 2 0 1 1 1 4 5 7 8 9 11 12 12 12 13 12 11 11 10
3 4 2 2 2 3 3 5 3 6 9 8 8 4 1 2 4 4 3 4 4 4 5 4 9 7 3 5 6 1 1 1 3 2 1 1 1 2 1 2 1 1 4 3 1 1 5 3 4 3 4 2 4 4 3 3 3 2 2 2 2 0 2 0 1 1 2 2 0 1 2 2 2 2 6 8 8 9 9 9 10 10 10 10 11 10 10
3 2 2 2 3 3 3 1 5 5 3 4 3 2 3 3 3 3 4 4 3 5 4 5 7 5 6 6 6 3 4 2 3 1 2 1 2 3 2 3 2 2 2 3 3 3 1 2 2 4 4 2 2 4 4 4 4 3 3 3 3 2 2 1 1 0 1 0 0 3 1 1 3 4 4 5 6 6 8 9 10 11 10 10 10 11 11
3 3 3 3 3 2 2 2 8 5 2 4 3 2 3 3 4 3 3 3 3 3 4 6 6 5 5 6 6 5 1 3 4 2 1 2 2 3 2 3 1 2 2 2 1 3 3 2 2 2 3 5 5 4 4 6 6 4 4 4 4 3 3 1 2 2 2 1 1 3 4 3 1 2 3 4 7 8 9 9 9 10 11 11 14 12 12
4 4 4 2 3 1 3 4 3 3 2 2 2 3 2 1 4 2 2 3 3 1 3 2 2 2 2 3 3 5 2 1 3 1 1 3 1 2 1 2 1 1 3 1 1 2 1 1 2 3 3 6 6 6 6 4 6 5 4 3 3 4 2 0 3 2 1 0 1 2 3 4 1 0 2 3 5 6 8 9 10 11 14 13 14 13 11
2 2 4 5 7 6 4 4 4 3 2 2 2 1 3 3 2 2 1 2 1 1 3 2 2 2 6 1 3 2 1 1 1 1 1 4 2 2 3 0 1 1 1 1 1 0 1 2 2 2 4 7 7 5 5 6 5 6 5 6 3 3 1 2 1 2 1 2 2 1 2 3 3 0 1 3 4 5 7 9 10 12 13 13 12 13 12
12 7 3 3 4 3 3 3 3 2 1 1 0 2 2 1 1 1 0 1 3 2 1 2 1 3 5 3 2 0 1 1 1 2 2 2 0 1 3 1 0 2 3 2 2 1 1 2 2 3 6 5 7 5 7 6 5 3 5 3 4 4 3 3 1 2 2 2 1 2 2 2 4 2 1 2 3 5 6 7 9 10 11 11 12 13 13
5 4 3 3 3 2 2 1 2 2 1 1 1 2 3 3 1 1 3 1 3 3 3 2 3 1 4 2 2 2 2 1 2 2 2 0 1 2 1 2 2 3 1 2 2 3 3 3 1 6 6 6 5 7 9 7 5 5 4 2 1 1 6 4 1 1 3 1 3 2 1 2 3 3 2 2 3 5 5 6 8 10 11 11 12 13 13
2 2 2 1 1 1 2 2 2 1 2 2 3 4 3 6 6 3 5 1 1 6 5 2 4 2 5 1 0 1 1 2 2 1 2 1 3 2 3 2 1 2 2 2 3 3 2 2 2 6 7 6 4 8 6 5 5 5 5 3 3 0 3 5 3 3 3 2 2 1 2 2 3 3 3 3 3 4 5 6 7 8 9 10 11 12 12
3 1 1 1 3 2 1 2 0 2 2 2 2 2 5 6 2 6 4 3 6 5 4 2 4 4 5 1 1 2 3 2 3 2 2 2 3 2 3 3 1 2 2 3 1 0 2 3 2 3 5 4 8 7 5 4 4 4 4 4 4 3 2 6 3 4 3 2 1 1 1 2 3 2 4 4 4 5 5 5 6 6 7 9 10 10 10
3 2 1 1 2 2 2 2 3 2 2 3 4 7 8 5 4 3 2 5 6 6 4 2 3 3 3 4 2 4 2 1 1 1 1 2 3 1 1 2 2 2 2 1 1 1 2 1 2 5 3 3 6 6 6 5 5 4 4 5 3 2 0 5 5 4 3 2 2 3 3 3 4 4 4 4 4 4 5 5 6 6 7 8 8 8 9
1 2 1 0 3 1 4 1 3 4 4 4 5 7 8 3 5 3 2 2 4 5 4 4 4 2 4 3 4 2 3 1 2 1 2 2 0 2 1 2 2 2 2 2 1 1 2 2 1 5 6 5 5 7 6 5 6 6 5 4 3 3 2 7 7 4 3 3 3 3 3 4 4 4 3 3 5 5 5 5 5 6 7 7 8 9 10
3 1 1 1 3 2 4 2 1 2 2 2 5 4 4 5 5 5 5 3 5 4 2 3 3 2 4 3 3 3 1 2 1 1 0 0 2 1 2 2 2 3 4 5 7 5 2 0 2 1 4 5 5 5 4 5 4 5 7 6 5 3 4 10 7 5 4 3 3 3 3 3 3 3 3 2 2 6 5 5 6 6 7 8 8 9 9
2 1 2 2 5 5 3 5 8 9 7 2 1 3 5 3 5 5 4 4 3 1 5 5 1 2 2 3 1 2 1 1 2 2 3 3 3 3 3 3 2 2 7 5 6 8 7 4 1 2 4 8 7 5 5 4 3 2 2 5 4 2 6 11 7 6 4 3 4 4 4 3 3 2 2 2 3 6 6 6 6 6 7 7 8 8 9
2 1 3 6 7 3 2 1 1 5 8 7 4 2 1 4 3 4 2 3 4 0 2 1 2 1 2 1 1 1 2 2 2 2 2 2 1 3 3 4 6 7 8 5 3 4 5 6 6 5 4 7 7 3 4 4 4 1 4 7 2 3 3 8 10 8 6 5 4 5 3 2 3 2 2 2 3 5 7 7 6 6 6 6 7 8 8
1 2 4 2 4 3 3 2 2 4 6 6 5 1 1 3 3 5 6 4 4 4 2 1 1 1 1 1 4 2 2 1 1 3 3 2 0 3 4 4 7 7 6 6 5 3 2 3 3 1 3 4 7 7 1 3 3 2 1 5 7 3 5 10 8 7 6 4 3 2 2 2 3 3 2 3 3 5 6 5 5 6 6 6 6 7 7
Wind_Direction
343 342 342 340 339 339 336 338 340 347 348 359 350 317 297 304 328 345 7 173 234 287 328 328 92 69 38 100 65 41 48 25 33 10 359 7 15 14 59 29 17 45 17 17 2 10 349 2 356 22 59 83 74 63 51 37 48 13 19 354 17 332 324 328 311 305 295 296 300 299 302 319 330 328 314 310 353 356 319 193 166 276 319 24 330 186 259
344 343 341 340 340 338 337 337 341 346 4 350 315 308 342 328 303 299 227 232 319 335 11 338 46 60 121 88 95 62 45 35 43 14 18 10 23 10 14 37 30 12 14 20 10 23 319 10 1 9 27 88 54 48 33 13 22 34 26 354 1 352 17 25 321 333 324 321 336 319 356 3 355 330 343 352 348 357 342 334 56 46 43 18 353 281 220
343 342 343 342 341 339 337 336 337 343 349 348 323 333 319 298 260 231 300 311 136 51 31 6 36 35 31 24 48 75 65 42 52 19 30 3 23 356 21 359 11 16 20 359 331 53 34 324 14 5 358 2 0 41 20 18 7 27 28 10 4 44 338 8 357 343 309 304 17 354 336 338 322 318 336 338 359 359 360 4 344 27 347 59 8 294 289
344 344 345 343 341 340 337 335 335 336 344 342 317 290 288 305 329 343 8 334 78 75 27 53 15 45 18 41 19 27 52 68 53 16 53 8 13 13 24 4 29 30 5 15 21 15 33 20 350 352 350 349 358 14 13 18 2 1 358 349 7 3 308 262 264 271 271 289 293 300 316 313 311 321 319 330 345 345 336 335 340 14 308 323 221 241 309
347 346 347 344 344 341 338 336 335 335 336 347 293 275 224 299 11 9 353 326 16 22 17 54 38 26 345 78 320 27 43 14 63 10 41 16 6 27 37 3 8 37 36 25 5 30 1 9 356 4 341 352 342 358 359 0 0 0 347 349 344 313 284 283 275 265 271 282 285 288 295 297 305 310 306 309 312 314 314 317 299 320 352 308 48 339 311
347 348 348 348 346 343 340 337 338 337 332 340 268 323 331 326 32 41 148 181 8 7 22 349 55 43 23 84 294 45 358 60 20 14 59 35 18 356 96 47 41 40 52 26 11 15 349 297 349 5 2 343 343 342 352 337 349 346 328 341 309 313 269 283 286 281 281 284 286 295 297 296 305 304 303 305 322 329 322 324 320 323 254 272 316 310 296
348 349 349 349 348 345 341 340 341 340 333 336 202 341 35 16 335 20 347 76 40 47 4 20 61 40 13 50 9 35 14 46 38 41 350 75 63 33 340 46 34 27 14 56 358 316 339 15 4 295 319 335 346 307 310 341 22 2 342 312 357 339 285 286 277 272 269 277 289 294 295 299 295 286 292 300 303 302 304 305 307 310 305 296 312 298 292
348 349 351 350 350 348 343 343 345 342 341 332 32 31 358 28 358 348 337 358 23 357 30 21 83 79 14 24 25 357 33 26 13 10 8 354 34 353 18 45 41 360 337 42 346 11 349 342 325 339 316 279 229 277 320 300 336 35 307 325 27 65 299 326 319 319 308 310 298 286 287 293 288 287 283 286 290 295 298 301 295 289 278 282 279 290 299
348 350 352 352 351 350 345 347 349 346 346 8 14 28 0 57 41 306 343 344 22 339 41 13 23 62 21 33 27 10 34 34 360 341 328 8 3 0 335 359 93 114 11 327 331 25 350 320 307 327 315 307 331 342 322 278 255 264 262 179 323 302 288 319 320 304 291 283 287 289 288 280 272 276 276 277 287 286 280 270 276 274 280 294 302 290 286
348 350 354 353 353 351 348 349 351 354 342 11 343 35 351 359 359 340 57 316 224 240 85 38 32 63 64 4 45 357 41 42 15 347 356 260 202 330 20 338 337 32 55 352 349 350 320 319 304 303 305 297 284 268 281 292 298 242 250 170 219 197 296 309 330 307 293 302 304 302 301 296 278 268 288 287 270 267 273 268 270 270 291 296 301 276 305
347 351 353 353 354 354 351 350 353 359 359 20 349 16 10 12 344 328 2 281 1 3 69 66 35 30 82 39 3 34 26 28 327 306 344 315 0 311 266 231 84 337 320 30 4 288 280 297 314 294 281 274 271 264 281 292 289 2 324 321 258 250 227 243 234 273 277 291 302 308 309 276 263 268 251 265 273 273 269 271 269 266 253 282 292 288 308
346 350 353 353 353 354 350 348 353 359 9 342 297 343 9 346 319 303 335 335 143 108 83 68 4 59 36 41 23 17 353 318 298 176 266 339 306 283 302 25 35 299 62 277 256 271 324 313 290 276 266 282 302 332 342 314 312 300 257 253 290 290 305 283 168 224 270 282 285 277 261 260 284 299 306 301 308 319 349 342 338 354 334 284 274 302 359
345 350 352 353 353 352 351 345 351 356 4 351 336 3 2 355 310 339 346 297 51 31 52 78 110 46 28 35 354 1 324 294 306 318 295 288 306 343 335 64 224 31 348 274 26 349 334 307 290 270 277 267 248 248 331 326 302 300 322 306 274 268 256 255 240 238 282 275 245 266 254 268 277 285 298 302 294 316 359 313 314 30 19 6 1 13 360
344 347 351 351 352 351 350 347 347 354 359 3 346 328 3 358 2 354 15 338 12 9 84 109 31 47 20 22 354 334 326 341 339 349 322 357 320 306 359 347 13 329 312 8 24 22 306 323 323 330 340 332 293 154 45 324 300 325 298 275 255 255 264 221 256 184 240 226 244 257 299 291 278 280 268 282 341 26 55 306 303 36 17 11 350 5 11
341 347 350 349 350 348 348 345 346 350 355 352 306 299 27 2 357 334 315 318 349 25 46 50 15 20 358 346 326 312 355 8 350 1 338 356 319 324 354 334 349 357 355 278 101 29 308 317 307 355 329 11 7 317 338 314 352 318 317 311 301 255 243 229 257 224 203 244 259 291 316 274 267 240 266 38 357 124 299 237 265 46 11 9 355 8 6
337 343 347 347 346 346 344 344 345 349 359 350 324 324 60 354 331 317 333 340 323 36 57 88 24 16 329 319 340 22 21 324 17 331 329 13 343 339 360 346 337 325 307 353 50 342 322 333 316 349 308 21 69 318 299 337 315 326 308 295 301 343 88 113 202 290 243 214 221 225 230 244 252 301 11 21 332 34 335 295 269 47 5 15 3 5 9
332 337 344 342 344 342 340 342 343 348 356 11 342 326 41 346 338 349 335 328 287 3 136 173 190 224 245 8 1 53 34 354 343 354 323 333 290 299 309 334 337 355 23 355 351 324 310 281 278 246 248 79 53 236 281 308 319 315 324 360 353 339 343 30 197 225 240 254 239 236 214 255 356 356 353 333 322 329 316 269 260 351 341 15 18 7 6
323 332 333 337 342 341 335 335 340 344 350 360 350 327 320 49 8 339 314 304 339 291 110 8 53 344 52 107 275 15 286 328 298 357 261 299 349 359 343 312 333 109 22 301 49 286 318 345 285 16 316 116 129 105 276 135 327 310 341 337 338 335 297 163 248 246 238 235 251 266 263 282 20 341 340 323 317 328 310 245 324 323 319 355 17 26 14
319 326 334 335 336 335 332 327 333 341 345 359 335 283 224 9 347 355 309 306 307 281 322 318 315 262 233 168 236 254 238 224 220 281 314 302 173 259 293 51 45 0 11 19 278 280 128 239 103 115 261 218 139 210 93 28 265 341 331 356 325 331 1 257 262 272 260 243 243 240 280 99 331 339 317 344 336 222 227 20 234 268 305 350 351 7 28
313 316 322 327 325 324 325 323 323 331 339 354 352 318 320 40 51 37 10 332 331 301 299 290 341 346 339 339 323 356 17 325 114 290 266 275 26 338 323 74 333 78 359 20 253 142 96 243 171 290 230 246 173 141 141 228 223 214 268 253 216 346 316 313 318 315 251 211 250 244 244 10 350 334 335 43 34 269 304 278 293 291 312 329 343 335 7
302 306 311 316 315 316 318 319 319 320 332 347 346 320 311 122 252 176 312 342 303 305 286 274 7 331 322 308 295 287 337 234 222 235 31 312 7 51 278 297 72 19 247 173 328 108 186 284 59 229 128 123 224 130 223 222 277 154 214 269 276 63 271 329 332 103 319 295 242 227 73 290 330 350 286 328 275 278 288 311 299 326 318 307 326 314 331
293 297 305 307 310 311 309 309 315 313 317 328 346 293 279 149 302 30 99 63 281 262 268 307 308 290 285 282 280 292 290 324 36 59 318 295 201 205 306 212 167 160 208 213 206 127 53 307 305 282 295 307 154 220 338 311 270 169 190 166 245 156 212 159 236 231 241 293 290 280 290 324 328 309 289 270 268 272 288 305 308 305 305 305 303 309 319
290 291 298 303 302 304 306 301 301 307 317 329 327 273 293 324 81 96 296 279 244 252 264 269 273 275 268 267 272 282 270 230 195 177 198 168 260 224 237 245 193 176 205 121 173 258 296 183 240 112 277 205 230 303 280 213 251 115 207 169 181 157 167 183 230 249 246 250 248 287 324 354 332 290 315 308 302 311 329 310 306 304 302 320 312 316 318
288 289 286 294 296 294 296 302 303 298 302 309 301 304 318 341 325 333 307 236 242 298 291 229 220 262 268 265 224 221 226 223 201 227 157 94 263 249 104 50 357 234 80 38 71 105 71 276 219 109 223 186 142 232 255 279 223 98 136 236 181 76 74 323 257 283 336 284 106 318 357 336 308 312 331 292 317 294 299 303 293 294 304 307 305 305 306
283 283 286 285 289 289 291 292 294 297 293 303 309 270 262 276 262 249 303 329 334 332 305 315 276 268 285 303 279 215 215 229 178 189 188 180 197 253 253 180 181 263 168 165 125 135 110 231 129 165 236 187 126 245 176 191 294 96 243 225 49 128 106 287 284 314 261 267 297 345 337 315 290 55 349 343 334 328 324 317 306 304 304 303 300 299 287
279 280 280 284 283 287 287 286 287 289 295 283 296 288 269 280 310 260 285 255 248 238 278 281 296 325 334 309 309 321 303 188 215 187 191 191 190 201 256 286 273 125 26 148 180 182 174 224 183 244 179 265 151 253 239 179 179 160 193 250 160 266 12 265 349 274 269 270 292 356 320 292 264 4 341 320 317 319 311 310 315 309 300 303 314 307 301
279 277 277 278 284 283 285 284 283 281 283 276 266 260 264 269 280 282 263 323 309 250 207 247 293 315 333 322 305 297 291 265 225 185 177 197 210 209 220 183 233 179 192 85 8 252 176 217 181 247 188 232 161 224 255 214 199 209 238 202 141 202 234 353 301 280 276 301 335 348 333 318 312 318 321 318 313 309 307 306 301 304 303 305 303 299 299
283 275 275 277 280 282 285 286 281 278 264 259 273 269 272 268 263 264 259 230 241 301 314 292 301 300 320 285 271 261 254 266 235 203 194 195 195 208 214 200 192 213 136 120 167 205 211 226 234 222 208 186 187 231 158 52 42 260 233 225 141 198 201 153 232 246 261 311 312 310 288 284 281 299 309 307 306 298 292 290 294 295 299 301 295 292 289
283 281 275 280 280 283 285 284 285 278 274 282 282 271 255 239 235 240 232 223 247 276 274 279 275 270 273 334 318 280 248 236 240 246 225 216 212 190 195 215 214 212 208 181 240 305 223 232 206 209 218 172 214 179 90 209 208 234 200 156 177 194 166 186 216 250 265 267 260 266 271 288 297 302 299 298 291 284 284 293 295 293 294 296 295 292 291
282 278 279 274 284 284 284 283 278 275 271 268 259 256 268 204 192 203 218 212 175 155 285 308 306 287 327 308 279 276 282 288 278 245 224 220 226 203 179 193 220 213 204 149 122 262 239 246 225 243 251 140 193 201 221 254 257 183 147 149 143 143 178 204 207 205 241 236 260 268 274 281 284 290 293 291 294 300 299 291 295 297 294 290 288 287 285
282 279 278 280 273 282 282 275 268 264 241 243 244 245 251 237 161 216 185 204 160 224 266 269 270 302 287 245 246 257 261 242 243 272 280 272 230 226 198 183 293 82 137 130 145 193 84 244 261 264 89 208 252 245 213 255 256 197 176 146 169 168 192 211 210 215 235 257 260 270 277 284 300 304 304 317 319 317 308 302 297 293 288 288 286 287 285
284 281 281 285 289 278 279 271 257 236 230 230 216 206 34 11 10 346 173 168 106 175 250 293 292 266 286 291 271 339 269 248 174 31 350 349 332 8 25 95 181 234 84 142 138 140 218 203 236 244 229 197 236 290 272 254 264 250 134 139 151 178 196 214 215 216 224 232 271 286 290 308 316 320 314 319 315 315 309 306 300 286 285 283 282 278 278
288 288 280 279 284 275 263 260 249 234 233 285 311 300 277 256 262 267 257 137 198 246 259 262 257 292 273 284 306 253 264 55 79 192 250 207 163 179 223 135 119 132 164 144 190 209 206 186 197 240 178 111 197 227 217 237 201 97 111 116 144 176 203 206 210 210 205 202 214 262 312 312 319 316 316 313 318 318 317 311 301 297 288 283 279 280 276
295 295 298 294 286 275 259 251 236 240 259 285 265 238 243 211 216 229 237 222 253 243 216 247 267 264 274 307 278 175 106 121 269 150 248 148 121 132 155 220 45 347 195 194 213 192 214 169 127 217 74 256 231 260 250 224 129 122 112 117 118 258 257 281 183 182 200 192 201 229 254 283 302 308 313 317 325 317 313 307 307 306 303 294 288 284 286
306 318 319 298 272 245 236 208 190 208 241 243 238 243 24 208 187 184 193 178 191 213 208 229 228 274 283 273 272 308 3 197 207 111 218 237 134 160 99 227 146 212 224 155 243 212 221 187 144 171 208 204 208 224 232 152 139 132 139 106 86 284 288 297 309 310 177 179 179 229 234 322 336 345 327 323 337 322 321 319 316 319 317 310 304 296 294
314 332 23 90 124 159 147 176 224 222 228 234 248 76 118 104 129 156 191 200 239 285 269 280 269 259 280 282 289 48 324 150 87 34 319 36 0 59 140 202 235 226 44 167 229 194 212 143 143 218 188 224 219 217 175 122 130 138 134 177 172 227 202 271 306 330 133 184 210 203 247 263 25 355 321 323 331 323 330 326 327 322 324 315 309 306 294
358 77 106 126 149 165 211 221 167 211 264 62 107 107 53 132 100 121 135 261 200 145 258 279 262 256 255 291 301 83 256 253 135 219 203 193 209 203 166 197 232 202 265 219 207 219 128 106 239 202 195 218 239 31 86 133 143 149 162 182 196 154 20 313 339 305 328 135 115 175 276 289 334 333 336 335 341 336 336 340 336 332 330 324 310 299 303
112 151 174 203 218 245 225 189 194 144 116 120 129 124 173 222 192 180 176 219 199 183 219 218 250 264 268 252 259 102 231 262 163 226 231 124 225 235 163 218 226 189 243 222 120 71 147 194 181 174 230 234 164 185 184 161 149 141 158 113 99 148 227 226 128 336 335 313 313 294 326 318 292 327 4 345 339 342 336 332 327 329 323 316 304 315 324
171 167 226 241 281 297 342 207 127 132 176 167 219 267 199 192 217 217 194 190 174 214 198 212 247 221 225 246 258 156 184 271 252 146 276 49 288 257 164 236 173 229 274 267 217 240 243 310 222 212 195 217 228 192 169 145 143 166 138 134 164 192 248 203 136 104 310 177 193 167 188 249 316 332 347 349 337 339 337 336 344 330 324 321 329 339 337
192 225 241 195 225 255 60 101 136 155 217 240 183 207 266 177 193 253 152 167 210 199 162 227 223 224 224 251 269 284 104 251 262 259 297 233 165 262 192 258 123 244 248 243 171 168 166 204 200 210 219 182 203 201 167 176 166 166 141 171 165 199 213 203 134 120 94 10 98 142 159 152 85 326 313 6 353 351 350 345 343 327 339 338 352 355 344
197 238 251 305 13 359 170 172 183 232 232 237 231 200 235 246 200 240 270 258 257 198 184 230 71 324 240 230 199 245 266 309 18 253 221 272 271 285 255 236 112 220 265 295 221 202 211 241 186 213 211 163 188 187 191 160 134 142 161 154 163 184 183 157 117 103 89 275 352 105 133 135 135 356 351 6 13 1 351 340 345 343 344 350 356 351 338
352 296 324 309 270 262 255 200 220 237 214 224 261 262 217 237 203 176 196 257 286 18 27 348 57 354 295 25 256 295 16 313 112 105 269 247 175 219 276 167 152 213 250 305 247 94 250 224 235 217 127 156 174 182 144 142 155 171 171 160 173 121 129 105 89 101 78 26 14 88 109 118 130 144 14 6 5 4 5 351 349 351 352 354 355 355 355
284 237 203 273 261 224 180 249 188 199 232 277 130 293 261 271 213 306 279 134 18 323 328 284 275 246 236 221 257 168 149 195 213 30 275 296 133 208 265 259 229 243 198 172 225 180 224 241 241 169 154 160 169 175 144 152 167 172 134 156 149 160 127 96 81 86 72 57 351 60 28 98 130 145 89 27 18 22 15 3 354 351 355 360 3 0 359
273 256 209 224 256 241 118 245 190 173 261 235 158 253 254 260 272 159 262 203 276 268 153 223 238 246 307 174 257 124 153 46 324 204 233 58 277 259 297 258 269 337 345 51 292 222 216 226 213 145 156 164 186 143 149 161 168 132 144 140 94 105 122 122 128 115 107 97 43 356 5 78 100 118 112 65 34 30 15 11 4 1 2 6 10 6 1
287 217 252 278 285 239 70 317 254 212 256 226 215 282 325 298 305 296 291 315 237 312 310 296 314 305 286 74 147 80 355 39 326 317 292 1 260 201 241 300 240 203 244 248 217 244 225 197 109 137 155 173 152 133 149 156 159 145 153 152 136 281 133 139 143 116 108 81 66 333 11 59 85 86 92 83 76 53 29 19 5 13 9 11 13 11 6
214 217 179 193 287 295 182 252 190 276 244 305 33 304 284 290 274 289 301 326 307 311 315 298 280 302 294 268 247 58 115 231 245 192 229 246 287 279 193 221 225 297 252 228 220 44 352 26 84 151 155 130 122 143 142 143 126 129 144 145 165 183 152 132 127 119 113 140 158 115 37 59 80 72 80 82 75 64 38 22 20 23 16 19 17 13 5
291 263 238 243 259 236 187 241 241 239 335 351 354 332 305 293 283 269 358 297 279 303 312 195 248 238 273 286 193 144 181 146 191 158 127 232 240 250 177 255 268 212 245 321 28 41 269 67 73 319 330 126 145 150 155 144 135 172 155 154 166 124 110 134 133 117 125 117 93 81 51 33 49 59 63 69 79 71 57 44 32 27 31 29 18 14 18
253 254 245 188 258 252 257 269 30 22 25 48 319 275 287 330 306 309 259 284 306 305 305 298 303 281 264 238 275 318 132 196 221 203 192 261 267 277 312 280 282 323 3 32 33 29 278 290 252 175 225 234 159 152 174 166 174 179 159 151 127 153 164 114 119 120 127 119 103 84 77 64 62 63 50 54 87 93 81 62 44 33 34 31 27 26 24
293 327 244 245 249 270 287 18 359 74 230 273 286 288 332 326 314 303 315 309 310 331 300 298 336 316 291 331 314 301 40 140 267 354 140 268 302 319 314 305 340 325 39 26 335 322 326 314 253 294 302 274 188 178 159 173 188 174 156 148 145 157 116 118 128 125 118 102 91 90 79 77 75 64 52 31 67 103 100 77 61 53 43 37 35 33 31
229 256 244 245 272 273 322 17 16 329 316 329 157 339 327 310 302 299 302 297 294 88 358 296 186 273 315 322 326 336 327 63 349 26 346 345 11 322 0 320 23 322 303 322 326 317 312 283 246 268 244 244 215 188 171 156 163 215 126 112 113 104 107 128 127 121 112 112 103 80 70 76 72 66 54 45 74 100 98 85 72 67 54 44 42 37 34
217 230 250 227 249 281 83 306 307 332 331 320 334 306 262 275 263 288 300 299 312 333 199 327 1 330 332 325 7 326 38 355 335 27 142 264 273 323 3 319 326 320 318 310 340 3 330 318 316 311 341 312 280 225 145 143 160 235 119 128 138 126 119 116 115 107 99 84 84 98 90 70 80 83 55 42 59 91 96 95 88 76 69 57 43 42 42
236 233 256 263 81 31 284 307 119 182 224 290 299 243 248 283 262 249 239 231 273 309 4 76 334 306 271 334 19 351 323 335 1 340 24 116 17 341 331 319 301 313 327 323 326 308 295 296 297 212 331 311 309 295 199 138 110 79 94 125 109 97 106 106 114 112 110 101 95 105 132 137 122 107 87 67 58 69 83 90 95 93 85 74 59 50 45